[[{"header":{"parameterUnit":"m.s-1","parameterCategory":1,"la1":30.2992,"la2":30.254,"lo1":-89.0895,"lo2":-89.0443,"dy":0.0025,"dx":0.0025,"nx":19,"ny":19,"refTime":"2026-04-26T03:00:00:Z","depth":0,"parameterNumber":2,"parameterNumberName":"U-component_of_WINDS"},"data":[0,0,0,-4.3219,-4.3213,-4.2853,-4.2852,-4.2439,-4.2436,0,0,0,0,0,0,0,0,0,0,0,-4.3368,-4.3367,-4.322,-4.3212,-4.2854,-4.2851,-4.244,-4.2436,0,0,0,0,0,0,0,0,0,0,0,-4.3369,-4.3367,-4.3366,-4.3211,-4.2854,-4.2851,-4.2441,-4.2691,0,0,0,0,0,0,0,0,0,0,-4.303,-4.3212,-4.3368,-4.3366,-4.3209,-4.2855,-4.2851,-4.2702,-4.2675,-4.2627,0,-4.2609,0,-4.2518,-4.2413,-4.2412,0,0,0,-4.3175,-4.3235,-4.3103,-4.3366,-4.3207,-4.2855,-4.3005,-4.2686,-4.2656,-4.2592,-4.2602,-4.2585,-4.2512,-4.2411,-4.2409,-4.2297,-4.2298,0,0,-4.3195,-4.3321,-4.3124,-4.3086,-4.3161,-4.3017,-4.2994,-4.2667,-4.268,-4.26,-4.2574,-4.2505,-4.2409,-4.2406,-4.2295,-4.2297,0,0,0,-4.3277,-4.3337,-4.3211,-4.3105,-4.3038,-4.3007,-4.2981,-4.2694,-4.2644,-4.2569,-4.25,-4.2407,-4.2402,-4.2294,-4.2296,-4.2486,0,0,0,-4.3287,-4.3384,-4.3221,-4.3295,-4.3046,-4.2864,-4.3017,-4.2666,-4.2625,-4.2502,-4.2407,-4.2399,-4.2292,-4.2295,-4.2477,-4.2548,0,0,0,-4.3376,-4.3394,-4.336,-4.3302,-4.3155,-4.2866,-4.2796,-4.2654,-4.2585,-4.2412,-4.2398,-4.2291,-4.2295,-4.247,-4.2536,-4.2559,0,0,0,-4.3502,-4.3519,-4.3365,-4.3356,-4.3159,-4.2995,-4.2797,-4.2662,-4.2537,-4.2405,-4.2293,-4.2296,-4.2468,-4.2528,-4.2552,-4.2599,-4.2633,0,0,-4.3593,-4.3535,-4.352,-4.3372,-4.327,-4.3038,-4.2957,-4.2711,-4.2569,-4.2392,-4.2388,-4.248,-4.2535,-4.2557,-4.2785,-4.2813,0,0,0,-4.3591,-4.3583,-4.3528,-4.3426,-4.3255,-4.311,-4.287,-4.2781,-4.2629,-4.2511,-4.2492,-4.2521,-4.2528,-4.2544,-4.2568,-4.2565,-4.2311,-4.231,-4.231,-4.3888,-4.3728,-4.3693,-4.3492,-4.3394,-4.3157,-4.3058,-4.2895,-4.2742,-4.2744,-4.2686,-4.2847,-4.2871,-4.2888,-4.2888,-4.2702,-4.2703,-4.2703,-4.2704,-4.4003,-4.3964,-4.3788,-4.3691,-4.3517,-4.3426,-4.32,-4.31,-4.2984,-4.2872,-4.287,-4.2758,-4.2924,-4.2914,-4.2716,-4.2714,-4.2713,-4.2711,-4.271,-4.4175,-4.4129,-4.4037,-4.3883,-4.3779,-4.3569,-4.3475,-4.3315,-4.316,-4.316,-4.3083,-4.3079,-4.3052,-4.3138,-4.3138,-4.3139,-4.3139,-4.3139,-4.314,-4.4388,-4.4279,-4.4227,-4.4062,-4.3982,-4.3854,-4.3627,-4.3536,-4.3395,-4.3284,-4.3283,-4.3132,-4.2977,-4.2938,-4.3147,-4.3146,-4.3145,-4.3144,-4.3144,-4.4553,-4.4496,-4.4416,-4.4339,-4.4134,-4.4044,-4.3851,-4.3687,-4.3589,-4.3548,-4.3403,-4.3318,-4.3238,-4.3217,-4.3184,-4.3443,-4.3443,-4.3443,-4.3443,-4.4694,-4.4649,-4.4537,-4.4425,-4.4295,-4.4118,-4.4025,-4.3852,-4.3657,-4.3586,-4.3528,-4.3473,-4.3461,-4.3387,-4.3363,-4.3329,-4.3619,-4.3619,-4.3619,-4.4786,-4.4723,-4.4679,-4.451,-4.4343,-4.4199,-4.4108,-4.3976,-4.3742,-4.3623,-4.3527,-4.3519,-4.3428,-4.3408,-4.3274,-4.3241,-4.3174,0,0]},{"header":{"parameterUnit":"m.s-1","parameterCategory":1,"la1":30.2992,"la2":30.254,"lo1":-89.0895,"lo2":-89.0443,"dy":0.0025,"dx":0.0025,"nx":19,"ny":19,"refTime":"2026-04-26T03:00:00:Z","depth":0,"parameterNumber":3,"parameterNumberName":"V-component_of_WINDS"},"data":[0,0,0,-1.8486,-1.8488,-1.859,-1.859,-1.8694,-1.8695,0,0,0,0,0,0,0,0,0,0,0,-1.8442,-1.8443,-1.8486,-1.8488,-1.859,-1.859,-1.8694,-1.8695,0,0,0,0,0,0,0,0,0,0,0,-1.8442,-1.8443,-1.8443,-1.8488,-1.859,-1.8591,-1.8694,-1.8625,0,0,0,0,0,0,0,0,0,0,-1.853,-1.8477,-1.8442,-1.8443,-1.8489,-1.859,-1.8591,-1.8622,-1.863,-1.8637,0,-1.8644,0,-1.8671,-1.87,-1.87,0,0,0,-1.8496,-1.8471,-1.8512,-1.8443,-1.849,-1.8589,-1.8546,-1.8627,-1.8635,-1.8647,-1.8645,-1.865,-1.8673,-1.8701,-1.8701,-1.8731,-1.8731,0,0,-1.8491,-1.8452,-1.8507,-1.8517,-1.8504,-1.8543,-1.8549,-1.8632,-1.8626,-1.8646,-1.8653,-1.8675,-1.8701,-1.8702,-1.8731,-1.8731,0,0,0,-1.8469,-1.8447,-1.8487,-1.8512,-1.8533,-1.8546,-1.8553,-1.8622,-1.8639,-1.8654,-1.8676,-1.8702,-1.8703,-1.8732,-1.8731,-1.8682,0,0,0,-1.8466,-1.8435,-1.8484,-1.846,-1.8531,-1.8579,-1.8541,-1.8633,-1.8644,-1.8676,-1.8702,-1.8704,-1.8732,-1.8731,-1.8684,-1.8663,0,0,0,-1.844,-1.8432,-1.8443,-1.8458,-1.8502,-1.8579,-1.8601,-1.8636,-1.8657,-1.8701,-1.8704,-1.8732,-1.8731,-1.8686,-1.8666,-1.866,0,0,0,-1.8399,-1.8392,-1.8441,-1.8443,-1.8501,-1.8551,-1.86,-1.8638,-1.867,-1.8702,-1.8732,-1.8731,-1.8687,-1.8668,-1.8662,-1.8646,-1.8637,0,0,-1.8368,-1.8387,-1.8392,-1.8439,-1.8471,-1.8538,-1.8563,-1.8625,-1.8662,-1.8705,-1.8707,-1.8684,-1.8666,-1.8661,-1.8605,-1.8597,0,0,0,-1.8369,-1.8371,-1.8389,-1.8421,-1.8475,-1.8519,-1.8585,-1.861,-1.865,-1.8678,-1.8683,-1.8673,-1.8672,-1.8665,-1.8659,-1.866,-1.8728,-1.8728,-1.8728,-1.8261,-1.8319,-1.8331,-1.8401,-1.8432,-1.8506,-1.8536,-1.8581,-1.8621,-1.8623,-1.8633,-1.8594,-1.8586,-1.8581,-1.8581,-1.8633,-1.8633,-1.8633,-1.8633,-1.8219,-1.823,-1.8298,-1.8333,-1.8393,-1.8422,-1.8495,-1.8525,-1.8559,-1.8588,-1.8589,-1.8613,-1.8571,-1.8574,-1.863,-1.863,-1.863,-1.8631,-1.8631,-1.815,-1.8165,-1.8204,-1.8264,-1.8303,-1.8376,-1.8409,-1.8461,-1.8509,-1.8512,-1.8529,-1.853,-1.8535,-1.8518,-1.8518,-1.8518,-1.8518,-1.8518,-1.8517,-1.806,-1.8106,-1.813,-1.8196,-1.8229,-1.8278,-1.836,-1.8392,-1.844,-1.8475,-1.8475,-1.8516,-1.856,-1.8567,-1.8515,-1.8516,-1.8516,-1.8516,-1.8516,-1.7985,-1.8014,-1.8051,-1.8085,-1.8171,-1.8209,-1.8282,-1.8345,-1.8379,-1.8394,-1.844,-1.8465,-1.8484,-1.849,-1.8496,-1.8429,-1.8429,-1.8429,-1.8429,-1.7922,-1.7944,-1.7998,-1.805,-1.8107,-1.8181,-1.822,-1.8288,-1.8359,-1.8384,-1.8404,-1.8419,-1.8423,-1.844,-1.8447,-1.8453,-1.8376,-1.8376,-1.8376,-1.7878,-1.791,-1.7932,-1.8013,-1.8088,-1.815,-1.819,-1.8245,-1.8332,-1.8375,-1.8405,-1.8407,-1.8433,-1.8438,-1.8471,-1.848,-1.8494,0,0]}]]